Location: Elbart
(49.6135°N, 11.9134°E)
Time: 18:55:43
(UTC+00:00)

Cosmos 1741 Rocket - Pass Details

Date: 09 April 2020
Orbit: 762 x 782 km, 74.0° (Epoch: 24 May)

Event Time Altitude Azimuth Distance (km) Brightness Sun altitude
Exits shadow 19:40:59 19° 161° (SSE) 1,776 5.4 -16.2°
Maximum altitude 19:44:13 39° 103° (ESE) 1,170 4.5 -16.6°
Drops below altitude 10° 19:49:08 10° 37° (NE) 2,347 6.5 -17.3°
Sets 19:51:39 0° 30° (NNE) 3,279 7.4 -17.6°
